Location: Serin Observatory
(40.5200°N, 74.4500°W)
Time: 19:39:38
(UTC+00:00)

SL-8 R/B - Visible Passes

Search period start: 23 January 2018 00:00
Search period end: 02 February 2018 00:00
Orbit: 657 x 668 km, 48.4° (Epoch: 22 January)

Date Brightness Start Highest point End Pass type
(mag) Time Alt. Az. Time Alt. Az. Time Alt. Az.
23 Jan 6.1 09:05:29 19° ESE 09:05:29 19° ESE 09:07:52 10° E visible
23 Jan 3.6 10:43:31 24° WSW 10:46:26 86° NNW 10:51:16 10° ENE visible
24 Jan 4.7 09:35:45 43° ESE 09:35:45 43° ESE 09:39:38 10° ENE visible
24 Jan 4.0 11:13:45 15° W 11:17:35 49° NNW 11:22:16 10° NE visible
25 Jan 3.5 10:05:49 81° WNW 10:05:57 82° NNW 10:10:47 10° ENE visible
26 Jan 6.2 08:57:46 19° ENE 08:57:46 19° ENE 08:59:10 10° ENE visible
26 Jan 4.1 10:35:45 36° WNW 10:37:08 47° NNW 10:41:47 10° NE visible
27 Jan 5.2 09:27:36 33° NE 09:27:36 33° NE 09:30:18 10° ENE visible
27 Jan 4.6 11:05:35 18° WNW 11:08:31 34° N 11:12:55 10° ENE visible
28 Jan 4.4 09:57:22 42° N 09:57:22 42° N 10:01:18 10° NE visible
28 Jan 4.8 11:35:41 10° WNW 11:39:59 31° N 11:44:18 10° ENE visible
29 Jan 6.5 08:49:05 14° ENE 08:49:05 14° ENE 08:49:48 10° ENE visible
29 Jan 4.6 10:27:03 31° NNW 10:28:03 34° N 10:32:26 10° ENE visible
30 Jan 5.7 09:18:44 24° NE 09:18:44 24° NE 09:20:49 10° NE visible
30 Jan 4.8 10:56:43 18° NW 10:59:32 31° N 11:03:51 10° ENE visible
31 Jan 5.0 09:48:22 31° NNE 09:48:22 31° NNE 09:51:58 10° ENE visible
31 Jan 4.7 11:26:32 10° NW 11:30:59 37° NNE 11:35:28 10° E visible
01 Feb 6.7 08:40:00 12° NE 08:40:00 12° NE 08:40:20 10° NE visible
01 Feb 4.8 10:17:58 28° NNW 10:19:05 31° N 10:23:24 10° ENE visible
